Location: Équennes
(49.7375°N, 1.9622°E)
Time: 17:17:45
(UTC+00:00)

Cosmos 2278 - Pass Details

Date: 29 September 2023
Orbit: 838 x 853 km, 71.1° (Epoch: 08 December)

Event Time Altitude Azimuth Distance (km) Brightness Sun altitude
Rises 01:00:20 0° 333° (NNW) 3,428 7.3 -39.7°
Reaches altitude 10° 01:02:55 10° 339° (NNW) 2,490 6.5 -39.5°
Enters shadow 01:04:37 19° 347° (NNW) 1,906 5.9 -39.4°
